Weather History for Cincinnati, OH

Change the Weather History Date:

Sunday, March 23, 2014

  Actual Average Record
Temperature  
Mean Temperature 34 °F -  
Max Temperature 39 °F 56 °F 75 °F (1988)
Min Temperature 28 °F 34 °F 18 °F (1959)
Degree Days  
Heating Degree Days 32    
Moisture  
Dew Point 20 °F    
Average Humidity 54    
Maximum Humidity 78    
Minimum Humidity 38    
Precipitation  
Precipitation 0.00 in - - ()
Sea Level Pressure  
Sea Level Pressure 30.29 in    
Wind  
Wind Speed 8 mph (North)    
Max Wind Speed 14 mph    
Max Gust Speed 23 mph    
Visibility 10 miles    
Events      
Averages and records for this station are not official NWS values.
T = Trace of Precipitation, MM = Missing Value Source: NWS Daily Summary

Daily Weather History Graph

Daily Weather History Graph

Search for Another Location

Airport:

Trip Planner

Search our weather history database for the weather conditions in past years. The results will help you decide how hot, cold, wet, or windy it might be!

Date:

Astronomy

Mar. 23, 2014 Rise Set
Actual Time 7:36 AM EDT 7:52 PM EDT
Civil Twilight 7:09 AM EDT 8:19 PM EDT
Nautical Twilight 6:38 AM EDT 8:50 PM EDT
Astronomical Twilight 6:06 AM EDT 9:22 PM EDT
Moon 2:06 AM EDT (3/23) 12:18 PM EDT (3/23)
Length of Visible Light 13h 09m
Length of Day
12h 16m
Waning Gibbous, 55% of the Moon is Illuminated
Mar 23
Waning Gibbous
Mar 23
Last Quarter
Mar 30
New
Apr 7
First Quarter
Apr 15
Full

Hourly Weather History & Observations

Time (EDT) Temp. Windchill Dew Point Humidity Pressure Visibility Wind Dir Wind Speed Gust Speed Precip Events Conditions
12:53 AM 37.9 °F - 27.0 °F 65% 30.22 in 10.0 mi Calm Calm - N/A   Clear
1:53 AM 36.0 °F 33.3 °F 27.0 °F 70% 30.21 in 10.0 mi NE 3.5 mph - N/A   Clear
2:53 AM 35.1 °F - 28.9 °F 78% 30.22 in 10.0 mi Calm Calm - N/A   Clear
3:53 AM 37.0 °F 31.0 °F 27.0 °F 67% 30.21 in 10.0 mi North 8.1 mph - N/A   Partly Cloudy
4:53 AM 37.0 °F 31.0 °F 28.0 °F 70% 30.23 in 10.0 mi North 8.1 mph - N/A   Mostly Cloudy
5:51 AM 35.6 °F 27.5 °F 26.6 °F 70% 30.23 in 10.0 mi North 11.5 mph - N/A   Overcast
5:53 AM 36.0 °F 28.5 °F 27.0 °F 70% 30.24 in 10.0 mi North 10.4 mph - N/A   Overcast
6:49 AM 35.6 °F 27.5 °F 21.2 °F 56% 30.25 in 10.0 mi North 11.5 mph - N/A   Overcast
6:53 AM 35.1 °F 26.4 °F 21.9 °F 59% 30.26 in 10.0 mi North 12.7 mph - N/A   Overcast
7:53 AM 34.0 °F 26.0 °F 21.0 °F 59% 30.27 in 10.0 mi North 10.4 mph - N/A   Overcast
8:53 AM 33.1 °F 23.9 °F 21.9 °F 64% 30.29 in 10.0 mi North 12.7 mph - N/A   Overcast
9:53 AM 33.1 °F 23.4 °F 21.9 °F 64% 30.31 in 10.0 mi North 13.8 mph - N/A   Overcast
9:55 AM 33.1 °F 23.4 °F 21.9 °F 64% 30.30 in 10.0 mi North 13.8 mph - N/A   Overcast
10:09 AM 33.1 °F 24.4 °F 19.9 °F 59% 30.30 in 10.0 mi North 11.5 mph - N/A   Overcast
10:53 AM 34.0 °F 25.5 °F 15.1 °F 46% 30.33 in 10.0 mi North 11.5 mph - N/A   Mostly Cloudy
11:53 AM 37.0 °F 29.8 °F 17.1 °F 44% 30.34 in 10.0 mi North 10.4 mph - N/A   Scattered Clouds
12:53 PM 37.9 °F 29.6 °F 16.0 °F 41% 30.32 in 10.0 mi NNW 13.8 mph 18.4 mph N/A   Clear
1:53 PM 39.0 °F 31.0 °F 16.0 °F 39% 30.32 in 10.0 mi NNW 13.8 mph 21.9 mph N/A   Mostly Cloudy
2:53 PM 39.9 °F 32.5 °F 16.0 °F 38% 30.31 in 10.0 mi NNW 12.7 mph 21.9 mph N/A   Mostly Cloudy
3:53 PM 39.0 °F 31.4 °F 15.1 °F 38% 30.30 in 10.0 mi NNE 12.7 mph 23.0 mph N/A   Mostly Cloudy
4:53 PM 39.0 °F 33.4 °F 15.1 °F 38% 30.30 in 10.0 mi North 8.1 mph - N/A   Mostly Cloudy
5:53 PM 39.0 °F 31.8 °F 15.1 °F 38% 30.30 in 10.0 mi North 11.5 mph 17.3 mph N/A   Partly Cloudy
6:53 PM 36.0 °F 28.5 °F 14.0 °F 41% 30.31 in 10.0 mi North 10.4 mph - N/A   Mostly Cloudy
7:53 PM 35.1 °F 27.9 °F 15.1 °F 44% 30.33 in 10.0 mi North 9.2 mph - N/A   Overcast
8:53 PM 33.1 °F 25.5 °F 12.9 °F 43% 30.34 in 10.0 mi North 9.2 mph - N/A   Mostly Cloudy
9:53 PM 30.9 °F 22.8 °F 14.0 °F 50% 30.36 in 10.0 mi NNE 9.2 mph - N/A   Scattered Clouds
10:53 PM 28.0 °F 21.7 °F 14.0 °F 56% 30.37 in 10.0 mi NNE 5.8 mph - N/A   Clear
11:53 PM 28.9 °F 23.9 °F 12.0 °F 49% 30.37 in 10.0 mi NNE 4.6 mph - N/A   Clear